739  
FPUS82 KCHS 182127  
OPUCHS  
 
TEST   
..KCHS/KSAV GATEWAY OBSERVATIONS
 
TEST  
NATIONAL WEATHER SERVICE CHARLESTON SC  
500 PM EDT THU JUL 18 2019  
 
NOTE: "FAIR" INDICATES FEW OR NO CLOUDS BELOW 12,000 FEET WITH NO  
SIGNIFICANT WEATHER AND/OR OBSTRUCTIONS TO VISIBILITY.  
 
SCZ050-WAZ558-NCZ071-TXZ119-213-PAZ071-DCZ001-FLZ074-172-MI076-  
NYZ176-178-MAZ016-IL014-TNZ027-NJZ106-GAZ044-MD014-182200-  
   
..GATEWAY OBSERVATIONS FOR CHARLESTON INTERNATIONAL
 
 
 
CITY SKY/WX TMP DP RH WIND PRES REMARKS  
CHAS AIRPORT FAIR 92 75 57 S15 29.98F HX 103  
SEATTLE PTSUNNY 69 52 54 VRB7 30.05F  
CHARLOTTE PTSUNNY 84 73 69 W3 29.97F HX 90  
DALLAS DFW FAIR 96 68 39 S16G24 29.90F HX 101  
DALLAS LOVE FAIR 96 68 39 S14G21 29.92F HX 101  
PHILLADELPHIA LGT RAIN 81 73 76 N5 29.86F  
WASH NATIONAL PTSUNNY 92 71 50 NW8 29.87R HX 98  
BALTIMORE PTSUNNY 89 74 60 NW6G20 29.85S HX 98  
MIAMI PTSUNNY 89 70 53 SE3 30.06F HX 94  
DETROIT CLOUDY 79 72 79 S7 29.81F  
NEWARK CLOUDY 82 75 79 N12 29.86F  
LAGUARDIA CLOUDY 76 72 87 NE13 29.87S  
J F K PTSUNNY 83 77 82 SE7 29.86F HX 92  
BOSTON LOGAN CLOUDY 69 58 67 E10 29.96F  
FT. LAUDERDALE PTSUNNY 88 71 57 E7 30.05F HX 94  
CHICAGO O'HARE FAIR 84 73 69 S21G35 29.76F HX 90  
CHICAGO MIDWAY FAIR 84 74 71 SW15G32 29.77F HX 91  
HOUSTON BUSH FAIR 94 72 48 S12 29.97F HX 102  
HOUSTON HOBBY PTSUNNY 94 74 52 S15G22 29.98F HX 104  
NASHVILLE PTSUNNY 81 72 74 SW9 30.02R THUNDER  
ATLANTA CLOUDY 78 73 84 CALM 30.07S  
 

 
 
GAZ044-118-TXZ119-213-NCZ071-DCZ001-MDZ014-506-PAZ021-071-NJZ106-  
NYZ176-178-MAZ106-OHZ011-021-055-MIZ076-KYZ091-ILZ014-INZ047-  
MNZ060-ONZ431-182200-  
   
..GATEWAY OBSERVATIONS FOR SAVANNAH INTERNATIONAL
 
 
 
CITY SKY/WX TMP DP RH WIND PRES REMARKS  
SAVANNAH ARPT PTSUNNY 86 76 71 SE10 29.99F HX 96  
ATLANTA CLOUDY 78 73 84 CALM 30.07S  
CHARLOTTE PTSUNNY 84 73 69 W3 29.97F HX 90  
DALLAS DFW FAIR 96 68 39 S16G24 29.90F HX 101  
HOUSTON BUSH FAIR 94 72 48 S12 29.97F HX 102  
WASH NATIONAL PTSUNNY 92 71 50 NW8 29.87R HX 98  
WASH DULLES PTSUNNY 90 71 53 W8 29.87F HX 96  
BALTIMORE PTSUNNY 89 74 60 NW6G20 29.85S HX 98  
PHILADELPHIA LGT RAIN 81 73 76 N5 29.86F  
NEWARK CLOUDY 82 75 79 N12 29.86F  
LAGUARDIA CLOUDY 76 72 87 NE13 29.87S  
J F K PTSUNNY 83 77 82 SE7 29.86F HX 92  
BOSTON CLOUDY 69 58 67 E10 29.96F  
PITTSBURG FAIR 86 66 51 W8 29.93F  
AKRON PTSUNNY 89 71 55 W7 29.94F HX 95  
CLEVELAND PTSUNNY 90 70 51 SW8 29.92F HX 95  
CINCINNATI PTSUNNY 89 68 49 E7 29.95F HX 93  
COLUMBUS CLOUDY 87 71 59 SW9 29.93S HX 93  
DETROIT CLOUDY 79 72 79 S7 29.81F  
CHICAGO O'HARE FAIR 84 73 69 S21G35 29.76F HX 90  
MINNEAPOLIS PTSUNNY 85 74 69 CALM 29.68R HX 92  
INDIANAPOLIS FAIR 92 72 51 S13 29.89F HX 99  
TORONTO CANADA MOSUNNY 81 70 69 SE12G22 29.85F  
 

 
 
 
CLICK HERE TO GO TO PREVIOUS BULLETINS.

The Nexlab SC Page
The Nexlab GA Page Main Text Page